GW3562 Weather Reports


time (UTC)temp
C
wind
direction
speed
KPH
gust
KPH
rain 1hr
cm
rain 24hr
cm
rain mn
cm
humidity
%
barometer
mb
20260504110627 8 310 1.6 6.4 0.00 0.08 0.08 82 1009.5
20260504110129 8 320 0.0 9.7 0.00 0.08 0.08 83 1009.6
20260504100136 7 327 0.0 1.6 0.08 0.08 0.08 90 1009.8
20260504090141 7 164 0.0 9.7 0.00 0.00 0.00 83 1010.0
20260504090104 7 183 0.0 9.7 0.00 0.00 0.00 83 1010.6
20260504081614 7 237 0.0 6.4 0.00 0.00 0.00 80 1010.3
20260504081533 7 237 0.0 6.4 0.00 0.00 0.00 80 1010.9
20260504081123 7 347 0.0 1.6 0.00 0.00 0.00 79 1010.2
20260504080636 7 317 0.0 1.6 0.00 0.00 0.00 79 1010.2
20260504070121 7 280 0.0 4.8 0.00 0.00 0.00 75 1010.3
20260504060132 6 219 0.0 0.0 0.00 0.00 0.00 72 1010.7
20260504050614 5 190 0.0 0.0 0.00 0.00 0.00 73 1010.7
20260504050115 4 187 0.0 1.6 0.00 0.00 0.00 76 1010.7
20260504045703 3 187 0.0 1.6 0.00 0.00 0.00 77 1010.7
20260504045125 3 262 0.0 0.0 0.00 0.00 0.00 82 1010.8
20260504044622 3 261 0.0 6.4 0.00 0.00 0.00 82 1010.8
20260504044549 2 261 0.0 6.4 0.00 0.00 0.00 82 1011.5
20260504044134 3 261 0.0 6.4 0.00 0.00 0.00 82 1010.9
20260504043619 2 246 0.0 0.0 0.00 0.00 0.00 82 1010.9
20260504043135 2 245 0.0 0.0 0.00 0.00 0.00 83 1010.9
20260504043106 2 245 0.0 0.0 0.00 0.00 0.00 83 1011.7
20260504042620 2 247 0.0 0.0 0.00 0.00 0.00 83 1011.0
20260504042127 2 332 0.0 0.0 0.00 0.00 0.00 83 1011.0
20260504041614 2 331 0.0 0.0 0.00 0.00 0.00 81 1011.0
20260504041541 2 330 0.0 0.0 0.00 0.00 0.00 81 1011.7
20260504041123 2 330 0.0 0.0 0.00 0.00 0.00 81 1011.1
20260504040616 2 330 0.0 0.0 0.00 0.00 0.00 81 1011.1
20260504040122 2 330 0.0 0.0 0.00 0.00 0.00 81 1011.1
20260504040033 2 330 0.0 0.0 0.00 0.00 0.00 81 1011.9
20260504035621 2 330 0.0 0.0 0.00 0.00 0.00 81 1011.1
20260504035125 2 330 0.0 0.0 0.00 0.00 0.00 81 1011.1
20260504034617 2 330 0.0 0.0 0.00 0.00 0.00 81 1011.1
20260504034507 2 330 0.0 0.0 0.00 0.00 0.00 81 1011.8
20260504034128 2 330 0.0 0.0 0.00 0.00 0.00 79 1011.1
20260504033629 2 330 0.0 0.0 0.00 0.00 0.00 78 1011.0
20260504033151 2 330 0.0 0.0 0.00 0.00 0.00 78 1011.1
20260504033028 2 330 0.0 0.0 0.00 0.00 0.00 78 1011.8
20260504032619 2 330 0.0 0.0 0.00 0.00 0.00 77 1011.0
20260504032128 2 330 0.0 0.0 0.00 0.00 0.00 75 1011.0
20260504031526 2 330 0.0 0.0 0.00 0.00 0.00 74 1011.8
20260504031117 3 330 0.0 0.0 0.00 0.00 0.00 73 1011.1
20260504030625 3 330 0.0 0.0 0.00 0.00 0.00 73 1011.1
20260504030139 3 330 0.0 0.0 0.00 0.00 0.00 73 1011.1
20260504030014 3 330 0.0 0.0 0.00 0.00 0.00 72 1011.9
20260504025621 3 330 0.0 0.0 0.00 0.00 0.00 72 1011.1
20260504025120 3 330 0.0 0.0 0.00 0.00 0.00 72 1011.1
20260504024622 3 330 0.0 0.0 0.00 0.00 0.00 72 1011.2
20260504024510 3 330 0.0 0.0 0.00 0.00 0.00 72 1011.9
20260504024123 3 330 0.0 0.0 0.00 0.00 0.00 71 1011.3
20260504023622 3 330 0.0 0.0 0.00 0.00 0.00 70 1011.3
20260504023123 4 330 0.0 0.0 0.00 0.00 0.00 69 1011.4
20260504023012 3 330 0.0 0.0 0.00 0.00 0.00 69 1012.2
20260504022619 4 330 0.0 0.0 0.00 0.00 0.00 68 1011.4
20260504022121 4 330 0.0 0.0 0.00 0.00 0.00 68 1011.4
20260504021609 5 330 0.0 0.0 0.00 0.00 0.00 66 1011.4
20260504021514 4 330 0.0 0.0 0.00 0.00 0.00 66 1012.2
20260504021116 5 330 0.0 0.0 0.00 0.00 0.00 66 1011.4
20260504020615 5 330 0.0 0.0 0.00 0.00 0.00 64 1011.4
20260504020136 5 330 0.0 0.0 0.00 0.00 0.00 64 1011.4
20260504020048 5 330 0.0 0.0 0.00 0.00 0.00 65 1012.2
20260504015614 5 330 0.0 0.0 0.00 0.00 0.00 64 1011.4
20260504015117 5 330 0.0 0.0 0.00 0.00 0.00 64 1011.4
20260504014644 5 331 0.0 0.0 0.00 0.00 0.00 64 1011.5
20260504014537 5 330 0.0 0.0 0.00 0.00 0.00 64 1012.2
20260504014116 5 344 0.0 0.0 0.00 0.00 0.00 63 1011.6
20260504013636 5 345 0.0 0.0 0.00 0.00 0.00 63 1011.5
20260504013120 5 345 0.0 0.0 0.00 0.00 0.00 62 1011.5
20260504013022 5 345 0.0 0.0 0.00 0.00 0.00 62 1012.2
20260504012624 5 345 0.0 0.0 0.00 0.00 0.00 63 1011.4
20260504012127 5 345 0.0 0.0 0.00 0.00 0.00 62 1011.4
20260504011639 5 345 0.0 0.0 0.00 0.00 0.00 61 1011.3
20260504011602 5 345 0.0 0.0 0.00 0.00 0.00 61 1012.1
20260504011152 5 347 0.0 0.0 0.00 0.00 0.00 60 1011.3
20260504010631 6 347 0.0 0.0 0.00 0.00 0.00 61 1011.2
20260504010117 6 347 0.0 0.0 0.00 0.00 0.00 60 1011.2
20260504010033 5 347 0.0 0.0 0.00 0.00 0.00 60 1011.9
20260504005638 6 347 0.0 0.0 0.00 0.03 0.00 60 1011.1
20260504005112 6 347 0.0 0.0 0.00 0.03 0.00 59 1011.1
20260504004619 6 347 0.0 0.0 0.00 0.03 0.00 59 1011.0
20260504004516 6 347 0.0 0.0 0.00 0.03 0.00 59 1011.8
20260504004132 6 347 0.0 0.0 0.00 0.03 0.00 58 1011.0
20260504003624 6 347 0.0 0.0 0.00 0.03 0.00 58 1010.9
20260504003141 6 347 0.0 0.0 0.00 0.03 0.00 58 1011.0
20260504003101 6 347 0.0 0.0 0.00 0.03 0.00 58 1011.7
20260504002109 6 347 0.0 0.0 0.00 0.03 0.00 57 1010.9
20260504001615 7 347 0.0 0.0 0.00 0.03 0.00 56 1010.9
20260504001539 6 347 0.0 0.0 0.00 0.03 0.00 56 1011.7
20260504001123 7 347 0.0 0.0 0.00 0.03 0.00 56 1011.0
20260504000652 7 347 0.0 0.0 0.00 0.03 0.00 55 1010.9
20260504000201 7 347 0.0 0.0 0.00 0.03 0.00 54 1010.9
20260504000107 7 347 0.0 0.0 0.00 0.03 0.00 54 1011.6
20260503235623 7 347 0.0 0.0 0.00 0.05 0.00 54 1010.9
20260503235135 8 347 0.0 0.0 0.00 0.05 0.00 53 1010.9
20260503234620 8 347 0.0 0.0 0.00 0.05 0.00 53 1010.9
20260503234529 7 347 0.0 0.0 0.00 0.05 0.00 54 1011.6
20260503234118 8 347 0.0 0.0 0.00 0.05 0.00 55 1010.8
20260503233118 8 347 0.0 0.0 0.00 0.05 0.00 56 1010.7
20260503233005 8 347 0.0 0.0 0.00 0.05 0.00 55 1011.5
20260503232628 8 347 0.0 0.0 0.00 0.05 0.00 54 1010.7
20260503232131 8 347 0.0 0.0 0.00 0.05 0.00 54 1010.6
20260503231621 9 347 0.0 0.0 0.00 0.05 0.00 55 1010.7
20260503231540 8 347 0.0 0.0 0.00 0.05 0.00 54 1011.4
20260503231118 9 347 0.0 0.0 0.00 0.05 0.00 54 1010.7
20260503230618 9 347 0.0 0.0 0.00 0.05 0.00 51 1010.6
20260503230018 8 347 0.0 0.0 0.00 0.05 0.00 51 1011.4
20260503225634 9 347 0.0 0.0 0.00 0.05 0.00 51 1010.7
20260503225109 9 347 0.0 0.0 0.00 0.05 0.00 49 1010.8
20260503224604 9 348 0.0 0.0 0.00 0.05 0.00 53 1010.7
20260503224530 8 348 0.0 0.0 0.00 0.05 0.00 53 1011.4
20260503224146 8 348 0.0 0.0 0.00 0.05 0.00 49 1010.7
20260503223620 8 348 0.0 0.0 0.00 0.05 0.00 50 1010.7
20260503223111 8 348 0.0 0.0 0.00 0.05 0.00 49 1010.7
20260503223050 8 348 0.0 0.0 0.00 0.05 0.00 49 1011.5
20260503222622 8 348 0.0 6.4 0.00 0.05 0.00 49 1010.7
20260503222125 9 348 0.0 6.4 0.00 0.05 0.00 51 1010.7
20260503221628 9 344 0.0 0.0 0.00 0.05 0.00 50 1010.8
20260503221534 8 344 0.0 0.0 0.00 0.05 0.00 50 1011.5
20260503220618 9 344 0.0 12.9 0.00 0.05 0.00 49 1010.7
20260503220111 9 344 4.8 12.9 0.00 0.05 0.00 49 1010.7
20260503220010 8 337 1.6 12.9 0.00 0.05 0.00 49 1011.4
20260503215601 8 338 0.0 6.4 0.00 0.05 0.00 50 1010.6
20260503215146 8 338 0.0 0.0 0.00 0.05 0.00 50 1010.6
20260503214621 8 338 0.0 0.0 0.00 0.05 0.00 50 1010.6
20260503214535 8 338 0.0 0.0 0.00 0.05 0.00 51 1011.3
20260503214139 8 338 0.0 0.0 0.00 0.05 0.00 50 1010.6
20260503213618 8 337 0.0 0.0 0.00 0.05 0.00 50 1010.7
20260503213120 8 337 0.0 0.0 0.00 0.05 0.00 51 1010.7
20260503213054 8 337 0.0 0.0 0.00 0.05 0.00 51 1011.4
20260503212642 8 337 0.0 0.0 0.00 0.05 0.00 51 1010.6
20260503212146 8 337 0.0 8.0 0.00 0.05 0.00 50 1010.5
20260503211613 8 337 1.6 8.0 0.00 0.05 0.00 52 1010.6
20260503211525 8 337 0.0 8.0 0.00 0.05 0.00 52 1011.3
20260503211115 8 339 0.0 0.0 0.00 0.05 0.00 52 1010.6
20260503210621 8 339 0.0 1.6 0.00 0.05 0.00 52 1010.6
20260503210113 8 339 0.0 9.7 0.00 0.05 0.00 51 1010.6
20260503210007 8 341 0.0 9.7 0.00 0.05 0.00 51 1011.3
20260503205613 8 341 3.2 9.7 0.00 0.05 0.00 51 1010.6
20260503205148 8 341 0.0 0.0 0.00 0.05 0.00 51 1010.6
20260503204615 8 341 0.0 4.8 0.00 0.05 0.00 52 1010.6
20260503204539 8 341 0.0 4.8 0.00 0.05 0.00 52 1011.3
20260503204114 8 342 0.0 6.4 0.00 0.05 0.00 50 1010.7
20260503203612 8 344 0.0 12.9 0.00 0.05 0.00 51 1010.6
20260503203138 8 24 1.6 12.9 0.00 0.05 0.00 52 1010.6
20260503203018 8 334 0.0 11.3 0.00 0.05 0.00 52 1011.4
20260503202625 8 337 1.6 11.3 0.00 0.05 0.00 51 1010.6
20260503202122 8 344 0.0 14.5 0.00 0.05 0.00 52 1010.7
20260503201636 8 341 1.6 14.5 0.00 0.05 0.00 51 1010.7
20260503201545 8 341 1.6 14.5 0.00 0.05 0.00 51 1011.4
20260503201132 8 344 3.2 12.9 0.00 0.05 0.00 53 1010.7
20260503200617 8 341 0.0 11.3 0.00 0.05 0.00 52 1010.8
20260503200131 9 5 3.2 11.3 0.00 0.05 0.00 51 1010.9
20260503195621 9 3 0.0 0.0 0.00 0.05 0.00 53 1010.9
20260503195148 8 338 0.0 4.8 0.00 0.05 0.00 54 1010.9
20260503194613 8 326 0.0 11.3 0.00 0.05 0.00 53 1011.0
20260503194536 8 326 0.0 11.3 0.00 0.05 0.00 53 1011.8
20260503194114 8 348 0.0 12.9 0.00 0.05 0.00 55 1011.1
20260503193614 8 329 0.0 12.9 0.00 0.05 0.00 52 1011.2
20260503193111 8 337 0.0 20.9 0.00 0.05 0.00 54 1011.2
20260503193050 8 332 0.0 20.9 0.00 0.05 0.00 54 1012.0
20260503192615 8 342 3.2 25.7 0.00 0.05 0.00 53 1011.2
20260503192113 8 300 3.2 25.7 0.00 0.05 0.00 51 1011.3
20260503191610 8 351 6.4 17.7 0.00 0.05 0.00 51 1011.3
20260503191518 8 340 4.8 17.7 0.00 0.05 0.00 52 1012.1
20260503191127 8 331 3.2 17.7 0.00 0.05 0.00 55 1011.3
20260503190641 8 332 0.0 0.0 0.00 0.05 0.00 55 1011.4
20260503190117 8 33 0.0 12.9 0.00 0.05 0.00 56 1011.4
20260503185631 8 356 3.2 12.9 0.00 0.05 0.00 55 1011.5
20260503185112 7 37 0.0 0.0 0.00 0.05 0.00 57 1011.6
20260503184655 7 347 0.0 11.3 0.00 0.05 0.00 55 1011.6
20260503184631 7 353 0.0 16.1 0.00 0.05 0.00 55 1012.4
20260503184118 7 360 0.0 19.3 0.00 0.05 0.00 56 1011.6
20260503183622 7 313 6.4 19.3 0.00 0.05 0.00 54 1011.6
20260503183123 8 19 0.0 11.3 0.00 0.05 0.00 55 1011.6
20260503183030 7 22 0.0 11.3 0.00 0.05 0.00 55 1012.4
20260503182629 8 330 3.2 11.3 0.00 0.05 0.00 55 1011.6
20260503182143 8 335 0.0 9.7 0.00 0.05 0.00 56 1011.6
20260503181613 8 17 0.0 19.3 0.00 0.05 0.00 56 1011.6
20260503181547 7 26 0.0 19.3 0.00 0.05 0.00 56 1012.4
20260503181120 8 347 9.7 16.1 0.00 0.05 0.00 53 1011.7
20260503180624 8 355 3.2 16.1 0.00 0.05 0.00 54 1011.6
20260503180043 8 344 0.0 16.1 0.00 0.05 0.00 54 1012.4
20260503175625 8 351 1.6 16.1 0.00 0.05 0.00 56 1011.6
20260503175150 8 344 0.0 3.2 0.00 0.05 0.00 59 1011.7
20260503174629 8 31 0.0 3.2 0.00 0.05 0.00 58 1011.7
20260503174600 7 32 0.0 3.2 0.00 0.05 0.00 57 1012.4
20260503174117 8 68 0.0 14.5 0.00 0.05 0.00 58 1011.8
20260503173630 8 342 0.0 14.5 0.00 0.05 0.00 54 1011.7
20260503173142 8 360 0.0 11.3 0.00 0.05 0.00 55 1011.7
20260503173015 7 360 0.0 11.3 0.00 0.05 0.00 55 1012.5
20260503172637 8 344 1.6 12.9 0.00 0.05 0.00 54 1011.8
20260503172118 8 24 3.2 12.9 0.00 0.05 0.00 55 1011.8
20260503171624 8 349 1.6 19.3 0.00 0.05 0.00 59 1011.8
20260503171510 7 349 0.0 19.3 0.00 0.05 0.00 57 1012.5
20260503171125 7 357 0.0 19.3 0.00 0.05 0.00 57 1011.8
20260503170619 7 26 1.6 17.7 0.00 0.05 0.00 56 1011.9
20260503170121 8 337 8.0 17.7 0.00 0.05 0.00 55 1011.9
20260503160133 7 345 0.0 20.9 0.00 0.05 0.00 55 1012.2
20260503150141 8 322 4.8 14.5 0.00 0.05 0.00 59 1012.5
20260503140117 6 6 1.6 9.7 0.00 0.05 0.00 73 1013.0
20260503131127 6 19 1.6 6.4 0.00 0.05 0.00 82 1013.3
20260503130130 5 63 0.0 9.7 0.00 0.05 0.00 83 1013.3
20260503130109 5 61 0.0 9.7 0.00 0.05 0.00 83 1014.1
20260503120123 4 36 1.6 6.4 0.00 0.05 0.00 94 1013.4